Torna al catalogo

CZ-6A DEB

AttivoSSO
NORAD 54518·DEBRIS·🇨🇳 China

Lanciato Nov 11, 2022 da Taiyuan Satellite Launch Center

Loading…

Prossimi Passaggi (prossime 24 ore)

TLE

AggiornatoSource: Space-Track

Epoca: Sep 14, 2026, 14:00 UTC

1 54518U 22151JW  26257.58352783  .00000475  00000-0  18483-3 0  9990
2 54518  98.7663 298.0232 0125284 213.7774 145.5381 14.30255647199871

Traccia CZ-6A DEB in tempo reale con AllMySat

Download on the App Store